Date String (YYYY-MM-DD hh:mm:ss) UTC,Instrument flags,absolute air pressure of the measurement (hPa),sample flow rate (lpm),inlet stack bypass flow (lpm),air temperature of the measurement (°C),ambient temperature measured by the external sensor (°C),aerosol sample conditioner tube jacket temperature (°C),OPC LED temperature (°C),internal box temperature (°C),relative humidity of the measurement (%),span deviation,mass concentration of particles derived from Lorenz-Mie calculation of OPC scattering (μg/m³),mass concentration of particles derived from Lorenz-Mie calculation of OPC scattering (μg/m³),mass concentration of particles derived from Lorenz-Mie calculation of OPC scattering (μg/m³)
DateTimeUTC,F1_M11,P_M11,Q1_M11,Q2_M11,T1_M11,T2_M11,T3_M11,T4_M11,T5_M11,U1_M11,ZSPAN_M11,X2_M11,X0_M11,X1_M11
2024-05-24 07:00:00,SystemResetWarning,0823.5,5.00,000.00,027.6,026.8,000.0,036.0,029.4,006.9,0000.0,0001.46,0006.98,0000.75
2024-05-24 07:01:00,SystemResetWarning,0823.4,5.00,000.00,027.6,026.8,000.0,036.0,029.4,006.5,0000.0,0001.40,0005.79,0000.74
2024-05-24 07:02:00,SystemResetWarning,0823.4,5.00,000.00,027.6,026.8,000.0,036.0,029.4,006.3,0000.0,0001.37,0005.70,0000.74
2024-05-24 07:03:00,SystemResetWarning,0823.4,5.00,000.00,027.6,026.8,000.0,036.0,029.4,006.2,0000.0,0001.33,0005.67,0000.73
2024-05-24 07:04:00,SystemResetWarning,0823.4,4.99,000.00,027.6,026.8,000.0,036.0,029.4,006.2,0000.0,0001.33,0007.00,0000.73
2024-05-24 07:05:00,SystemResetWarning,0823.4,4.99,000.00,027.6,026.8,000.0,036.0,029.4,006.2,0000.0,0001.31,0007.26,0000.72
2024-05-24 07:06:00,SystemResetWarning,0823.4,4.99,000.00,027.6,026.8,000.0,036.0,029.4,006.2,0000.0,0001.29,0007.98,0000.71
2024-05-24 07:07:00,SystemResetWarning,0823.4,5.01,000.00,027.6,026.8,000.0,036.0,029.4,006.3,0000.0,0001.26,0008.02,0000.71
2024-05-24 07:08:00,SystemResetWarning,0823.4,5.01,000.00,027.6,026.8,000.0,036.0,029.4,006.3,0000.0,0001.20,0007.46,0000.71
2024-05-24 07:09:00,SystemResetWarning,0823.5,5.01,000.00,027.6,026.8,000.0,036.0,029.4,006.3,0000.0,0001.17,0007.02,0000.70
2024-05-24 07:10:00,SystemResetWarning,0823.5,5.01,000.00,027.6,026.8,000.0,036.0,029.4,006.2,0000.0,0001.16,0006.90,0000.70
2024-05-24 07:11:00,SystemResetWarning,0823.4,5.00,000.00,027.6,026.8,000.0,036.0,029.4,006.1,0000.0,0001.18,0006.21,0000.70
2024-05-24 07:12:00,SystemResetWarning,0823.4,5.00,000.00,027.6,026.8,000.0,036.0,029.4,006.1,0000.0,0001.20,0007.14,0000.70
2024-05-24 07:13:00,SystemResetWarning,0823.5,5.00,000.00,027.6,026.8,000.0,036.0,029.4,006.1,0000.0,0001.19,0007.80,0000.69
2024-05-24 07:14:00,SystemResetWarning,0823.4,4.99,000.00,027.6,026.8,000.0,036.0,029.4,006.2,0000.0,0001.22,0007.91,0000.69
2024-05-24 07:15:00,SystemResetWarning,0823.4,5.01,000.00,027.6,026.8,000.0,036.0,029.4,006.2,0000.0,0001.22,0007.60,0000.68
2024-05-24 07:16:00,SystemResetWarning,0823.4,5.02,000.00,027.6,026.8,000.0,036.0,029.4,006.2,0000.0,0001.17,0006.61,0000.67
2024-05-24 07:17:00,SystemResetWarning,0823.4,4.99,000.00,027.6,026.8,000.0,035.9,029.4,006.2,0000.0,0001.17,0006.09,0000.67
2024-05-24 07:18:00,SystemResetWarning,0823.5,4.99,000.00,027.6,026.8,000.0,035.9,029.4,006.3,0000.0,0001.20,0005.86,0000.68
2024-05-24 07:19:00,SystemResetWarning,0823.5,5.00,000.00,027.6,026.8,000.0,036.0,029.4,006.7,0000.0,0001.24,0007.37,0000.69
2024-05-24 07:20:00,SystemResetWarning,0823.5,5.01,000.00,027.6,026.8,000.0,036.0,029.4,007.1,0000.0,0001.26,0007.40,0000.69
2024-05-24 07:21:00,SystemResetWarning,0823.5,5.00,000.00,027.6,026.8,000.0,036.0,029.4,006.7,0000.0,0001.24,0007.34,0000.69
2024-05-24 07:22:00,SystemResetWarning,0823.6,4.99,000.00,027.6,026.8,000.0,036.0,029.4,006.8,0000.0,0001.26,0007.35,0000.70
2024-05-24 07:23:00,SystemResetWarning,0823.5,5.00,000.00,027.6,026.7,000.0,036.0,029.3,006.8,0000.0,0001.25,0006.56,0000.70
2024-05-24 07:24:00,SystemResetWarning,0823.5,5.00,000.00,027.6,026.7,000.0,036.0,029.3,006.7,0000.0,0001.25,0005.43,0000.70
2024-05-24 07:25:00,SystemResetWarning,0823.5,5.00,000.00,027.6,026.7,000.0,036.0,029.3,006.7,0000.0,0001.19,0004.99,0000.71
2024-05-24 07:26:00,SystemResetWarning,0823.5,5.00,000.00,027.6,026.7,000.0,035.9,029.3,006.8,0000.0,0001.19,0006.42,0000.72
2024-05-24 07:27:00,SystemResetWarning,0823.4,5.02,000.00,027.5,026.7,000.0,035.9,029.3,006.7,0000.0,0001.18,0006.58,0000.72
2024-05-24 07:28:00,SystemResetWarning,0823.4,5.00,000.00,027.5,026.7,000.0,035.9,029.3,006.8,0000.0,0001.22,0007.58,0000.73
2024-05-24 07:29:00,SystemResetWarning,0823.4,4.99,000.00,027.5,026.6,000.0,036.0,029.3,006.8,0000.0,0001.24,0006.99,0000.71
2024-05-24 07:30:00,SystemResetWarning,0823.4,5.01,000.00,027.5,026.6,000.0,035.9,029.3,006.8,0000.0,0001.28,0005.79,0000.69
2024-05-24 07:31:00,SystemResetWarning,0823.4,5.00,000.00,027.5,026.6,000.0,035.9,029.2,006.9,0000.0,0001.25,0005.76,0000.68
2024-05-24 07:32:00,SystemResetWarning,0823.4,4.99,000.00,027.5,026.6,000.0,035.9,029.3,007.0,0000.0,0001.26,0005.88,0000.67
2024-05-24 07:33:00,SystemResetWarning,0823.5,4.99,000.00,027.5,026.6,000.0,035.9,029.3,007.0,0000.0,0001.27,0006.74,0000.67
2024-05-24 07:34:00,SystemResetWarning,0823.5,5.01,000.00,027.5,026.6,000.0,035.9,029.2,007.0,0000.0,0001.30,0007.56,0000.66
2024-05-24 07:35:00,SystemResetWarning,0823.5,5.01,000.00,027.5,026.6,000.0,035.9,029.2,007.0,0000.0,0001.30,0007.56,0000.66
2024-05-24 07:36:00,SystemResetWarning,0823.5,5.00,000.00,027.5,026.6,000.0,035.9,029.2,006.8,0000.0,0001.31,0007.72,0000.65
2024-05-24 07:37:00,SystemResetWarning,0823.5,5.00,000.00,027.5,026.6,000.0,035.9,029.2,006.9,0000.0,0001.29,0006.67,0000.64
2024-05-24 07:38:00,SystemResetWarning,0823.5,4.99,000.00,027.5,026.6,000.0,035.9,029.2,007.0,0000.0,0001.30,0006.70,0000.64
2024-05-24 07:39:00,SystemResetWarning,0823.7,5.00,000.00,027.5,026.6,000.0,035.8,029.2,007.0,0000.0,0001.29,0005.58,0000.63
2024-05-24 07:40:00,SystemResetWarning,0823.6,5.00,000.00,027.5,026.6,000.0,035.8,029.2,007.0,0000.0,0001.28,0005.55,0000.64
2024-05-24 07:41:00,SystemResetWarning,0823.5,5.02,000.00,027.5,026.6,000.0,035.8,029.2,006.2,0000.0,0001.26,0005.38,0000.64
2024-05-24 07:42:00,SystemResetWarning,0823.5,5.00,000.00,027.4,026.6,000.0,035.8,029.2,006.1,0000.0,0001.25,0006.48,0000.64
2024-05-24 07:43:00,SystemResetWarning,0823.5,4.99,000.00,027.4,026.6,000.0,035.8,029.2,006.1,0000.0,0001.22,0006.86,0000.63
2024-05-24 07:44:00,SystemResetWarning,0823.4,5.00,000.00,027.4,026.6,000.0,035.8,029.2,006.0,0000.0,0001.15,0005.70,0000.62
2024-05-24 07:45:00,SystemResetWarning,0823.3,5.00,000.00,027.4,026.5,000.0,035.8,029.1,006.0,0000.0,0001.14,0004.62,0000.62
2024-05-24 07:46:00,SystemResetWarning,0823.5,5.00,000.00,027.4,026.5,000.0,035.8,029.1,006.0,0000.0,0001.11,0004.43,0000.62
2024-05-24 07:47:00,SystemResetWarning,0823.4,5.00,000.00,027.4,026.5,000.0,035.8,029.1,006.4,0000.0,0001.08,0004.08,0000.61
2024-05-24 07:48:00,SystemResetWarning,0823.5,5.01,000.00,027.4,026.5,000.0,035.7,029.1,006.4,0000.0,0001.10,0003.94,0000.62
2024-05-24 07:49:00,SystemResetWarning,0823.5,5.01,000.00,027.3,026.5,000.0,035.7,029.1,006.3,0000.0,0001.09,0003.67,0000.62
2024-05-24 07:50:00,SystemResetWarning,0823.4,4.99,000.00,027.3,026.4,000.0,035.7,029.1,006.3,0000.0,0001.10,0003.71,0000.62
2024-05-24 07:51:00,SystemResetWarning,0823.5,5.00,000.00,027.3,026.4,000.0,035.7,029.1,006.6,0000.0,0001.09,0003.66,0000.62
2024-05-24 07:52:00,SystemResetWarning,0823.5,5.00,000.00,027.3,026.4,000.0,035.7,029.0,006.8,0000.0,0001.06,0003.59,0000.62
2024-05-24 07:53:00,SystemResetWarning,0823.4,4.99,000.00,027.3,026.4,000.0,035.7,029.0,006.0,0000.0,0001.03,0002.73,0000.62
2024-05-24 07:54:00,SystemResetWarning,0823.4,5.00,000.00,027.3,026.3,000.0,035.7,029.0,005.9,0000.0,0001.04,0001.91,0000.63
2024-05-24 07:55:00,SystemResetWarning,0823.4,5.01,000.00,027.2,026.3,000.0,035.7,029.0,006.0,0000.0,0001.04,0001.87,0000.63
2024-05-24 07:56:00,SystemResetWarning,0823.4,5.00,000.00,027.2,026.3,000.0,035.6,028.9,006.5,0000.0,0001.03,0001.85,0000.64
2024-05-24 07:57:00,SystemResetWarning,0823.4,4.99,000.00,027.2,026.3,000.0,035.6,028.9,006.0,0000.0,0001.01,0001.85,0000.63
2024-05-24 07:58:00,SystemResetWarning,0823.4,4.99,000.00,027.2,026.3,000.0,035.6,028.9,005.8,0000.0,0001.01,0001.85,0000.63
2024-05-24 07:59:00,SystemResetWarning,0823.4,5.00,000.00,027.2,026.2,000.0,035.6,028.9,006.1,0000.0,0001.02,0001.93,0000.63
